Погода Великие Луки

Погода Великие Луки : погода сейчас, прогноз погоды и архив. Всё, что Вы хотите узнать о погоде Великие Луки!

Поиск расширенной информации на нашем сайте:

Другие новости

Новости СМИ2

Главная страница сайта

Новости сайта

03.07.2017

Напоминаем, что на нашем специализированном сайте Метеоцентр.Азия вы можете получить высокодетализированные автоматические прогнозы погоды по пунктам России, СНГ и мира в авиационном формате (включающие направление и скорость ветра, видимость, явления погоды, количество и форму облачности, нижнюю и верхнюю границу облачности).


Погода Великие Луки - сегодня

Время (UTC), дата Ветер
(°,м/с) 
Видим.   Явления Облачность Т
(°С)
Тd
(°С)
f(%) Тe
(°С)
Pmin
(гПа)
dP
(гПа)
Po
(мм)
O2
(г/м3)
Тmin Tmax R s Состояние
почвы
09 19.09.18 220 (ЮЗ) 10 км    ясно 
+22.1 +11.2 50 +25  1015.7  -0.4  753  279           
12 19.09.18 230 (ЮЗ) 10 км    ясно 
+24.7 +10.9 42 +27  1014.4  -1.2  752  276           
15 19.09.18 230 (ЮЗ) 10 км    10/0 верхняя 
[Ci fib]
+23.4 +13.2 53 +29  1013.8  -0.6  751  276           
18 19.09.18 220 (ЮЗ) 10 км    ясно 
+16.8 +14.3 85 +25  1013.9  -0.2  751  282    +24.9       
21 19.09.18 210 (ЮЗ) 10 км    ясно 
+16.5 +14 85 +24  1013.6  -0.3  751  282           
00 20.09.18 260 (З) 10 км    ясно 
+15.9 +13.6 86 +23  1015  1.4  752  284           
06 20.09.18 240 (ЮЗ) 10 км    ясно 
+15.6 +13.2 86 +22  1017  0.9  753  285  +11    0.0     
09 20.09.18 260 (З) 10 км    ясно 
+21.5 +12.4 56 +26  1016.8  0.1  753  279           
12 20.09.18 280 (З) 10 км    3/0 верхняя 
[Ci fib]
+23.6 +11.2 46 +26  1016.6  -0.1  753  277           
15 20.09.18 240 (ЮЗ) 10 км    ясно 
+23 +11.4 48 +26  1016.6  -0.1  753  278           
18 20.09.18 тихо ()   10 км    ясно 
+13.3 +12.5 95 +18  1017.2  0.2  753  287    +24.2       
21 20.09.18 тихо ()   10 км    ясно 
+11.4 +11.5 100 +14  1017.2  -0.1  753  289           
00 21.09.18 тихо ()   10 км    ясно 
+12 +12 100 +16  1017.1  753  288           
09 21.09.18 210 (ЮЗ) 10 км    10/0 верхняя 
[Cs]
+24.7 +14 51 +32  1016.8  -0.1  754  276           
12 21.09.18 200 (Ю) 10 км    10/3 1000 м верхняя 
[Cu med, cong|Cs]
+27.1 +12.6 41 +32  1015.9  -0.8  753  274           
15 21.09.18 180 (Ю) 10 км    10/0 верхняя 
[Cs]
+25 +14.5 52 +33  1015  -1  752  275           
18 21.09.18 150 (ЮВ) 10 км    ясно 
+18.4 +15.4 83 +29  1014.5  -0.7  752  280    +27.3       
21 21.09.18 160 (Ю) 10 км    ясно 
+17.5 +13.9 79 +26  1013.4  -1.1  751  281           
00 22.09.18 160 (Ю) 10 км    ясно 
+16.4 +12 75 +21  1011.9  -1.6  750  283           
06 22.09.18 160 (Ю) 10 км    ясно 
+18.2 +11.6 65 +22  1007.7  -2  747  280  +15.7         
09 22.09.18 190 (Ю) 10 км    6/6 1000 м 
[Sc]
+24 +10.1 41 +25  1005.9  -1.5  745  274           
15 22.09.18 250 (З) 10 км    10/10 600 м кучево-дожд. 
[Cb calv]
+13 +8.4 74 +14  1010.3  748  286      0.0     
21 22.09.18 200 (Ю) 4000 м  слаб. ливневой дождь  10/10 600 м кучево-дожд. 
[Cb calv]
+10 +9.8 99 +11  1009.8  0.4  748  289           
03 23.09.18 210 (ЮЗ) 10 км    ясно 
+7.7 +7.6 99 +8  1008.7  -0.7  747  291  +7.6       
09 23.09.18 240 (ЮЗ) 10 км    6/6 1000 м кучево-дожд. 
[Cb cap]
+12.1 +6.7 70 +12  1007.5  -0.3  746  287           
Время (UTC), дата Ветер
(°,м/с) 
Видим.   Явления Облачность Т
(°С)
Тd
(°С)
f(%) Тe
(°С)
Pmin
(гПа)
dP
(гПа)
Po
(мм)
O2
(г/м3)
Тmin Tmax R s Состояние
почвы

Для получения пояснительной информации подведите курсор к названию столбца.

ПОГОДА Великие Луки - архив

Всё, что Вы хотите узнать о погоде Великие Луки - удобно и подробно!

Выберите нужную дату (начиная с 1 января 2015* года) и нажмите кнопку "Найти".
Будут отображены архивные сводки погоды по пункту Великие Луки, начиная с указанной даты.


Отображать данные в формате CSV (для использования в таблицах Excel)


Внимание! Наш архив погоды предназначен исключительно для личного некоммерческого использования в познавательных целях. Если Вам необходимы официальные справки о состоянии погоды (для производственных, юридических, коммерческих и т.п. целей), обращайтесь в органы Росгидромета.

*Примечание: данная дата относится к архиву по метеостанциям СССР (Россия, СНГ, Балтия).
Архив по метеостанциям Зарубежной Европы и Азии (кроме Китая) хранится 10 дней, по другим регионам земного шара (Китай, Африка, Америка, Австралия, Океания) - 1 день.

Великие Луки - район местоположения метеостанции


Название, широта, долгота, высота метеостанции:
Великие Луки 56.3°ш. 30.6°д. 99 м над ур. моря [Российская Федерация]

Дополнительная информация

В oтличие oт бoльшинства пoгoдных сайтoв мы публикуем пoдрoбную метеoинфoрмацию в детальнoм прoфессиoнальнoм фoрмате.

Характеристики температуры и влажнoсти вoздуха измеряются на высoте 2 м в тени вдали oт зданий и деревьев.
Скoрoсть ветра измеряется на высoте 10 м (на урoвне рoста челoвека скoрoсть ветра ниже в 1.5-2 раза). Если метеoстанция нахoдится в гoрoде или в лесу, тo скoрoсть ветра занижена на 2-4 м/с пo сравнению с oткрытым местoм. Скoрoсть ветра над акватoриями крупных рек и oзёр, а также на вершинах хoлмoв на 2-5 м/с выше, чем в oбычных услoвиях.
Атмoсфернoе давление в разных тoчках местнoсти мoжет значительнo oтличаться oт давления на метеoстанции, в зависимoсти oт услoвий рельефа (при пoдъёме на 10 м давление пoнижается примернo на 1 мм рт.ст.).